Location: Unspecified
(0.0000°N, 0.0000°E)
Time: 05:17:43
(UTC+00:00)

ISS - Visible Passes

Search period start: 27 September 2016 00:00
Search period end: 07 October 2016 00:00
Orbit: 400 x 410 km, 51.6° (Epoch: 27 September)

Date Brightness Start Highest point End Pass type
(mag) Time Alt. Az. Time Alt. Az. Time Alt. Az.
27 Sep 0.1 04:28:33 10° NE 04:28:56 10° NE 04:29:19 10° ENE visible
28 Sep -3.4 05:09:56 10° NW 05:13:12 70° SW 05:16:29 10° SSE visible
29 Sep -2.0 04:20:40 34° NNE 04:21:10 37° NE 04:24:15 10° SE visible
30 Sep -1.6 05:04:40 16° WSW 05:05:24 17° SW 05:07:39 10° S visible
01 Oct -0.8 04:15:45 15° SSE 04:15:45 15° SSE 04:16:30 10° SSE visible
